Temperature
-2 -1 -1 -1 -1 -0 -0 -0 0 1 1 0 1 0 0 0 0 0 -0 -0 0 0 0 1 1 1 2 2 2 3 3 4 4 4 4 4 5 5 5 5 5 5 5 5
-2 -1 -1 -1 -1 -1 -1 -1 -0 -0 -0 -0 -0 -0 -1 -1 -1 -1 -1 -1 -1 -0 -0 -0 0 1 1 1 2 2 3 3 3 3 4 4 4 4 4 4 4 5 5 5
-2 -1 -1 -2 -2 -2 -2 -2 -2 -2 -2 -1 -1 -1 -2 -2 -2 -2 -2 -2 -1 -1 -1 -1 -0 0 1 1 1 2 2 2 2 3 3 3 3 3 4 4 4 4 4 4
-3 -3 -3 -3 -3 -3 -3 -3 -3 -3 -3 -2 -2 -2 -2 -2 -2 -2 -3 -2 -2 -2 -1 -1 -0 -0 0 1 1 1 1 2 2 2 2 2 3 3 3 3 3 3 3 3
-3 -4 -3 -3 -4 -4 -4 -4 -4 -4 -3 -3 -3 -2 -2 -2 -3 -3 -3 -3 -3 -2 -2 -1 -1 -0 -0 0 0 1 1 1 1 1 2 2 2 2 2 2 2 2 2 3
-4 -4 -4 -5 -4 -4 -3 -4 -4 -4 -4 -4 -4 -4 -4 -4 -4 -4 -3 -3 -3 -2 -2 -1 -1 -1 -1 -0 -0 -0 0 0 1 1 1 1 1 2 2 2 2 2 2 2
-5 -4 -5 -5 -5 -4 -5 -6 -5 -5 -5 -5 -5 -5 -5 -5 -4 -4 -4 -3 -3 -3 -2 -2 -2 -1 -1 -1 -1 -1 -1 -0 -0 0 0 1 1 1 1 1 1 1 1 1
-5 -6 -6 -6 -5 -6 -6 -6 -6 -6 -6 -6 -6 -6 -5 -5 -5 -5 -4 -4 -4 -3 -3 -2 -2 -2 -1 -1 -1 -1 -1 -1 -1 -1 -0 -0 0 0 0 0 0 0 0 0
-6 -6 -6 -6 -6 -6 -6 -6 -6 -6 -6 -6 -6 -6 -6 -6 -6 -5 -5 -5 -4 -4 -3 -3 -3 -2 -2 -2 -2 -2 -2 -2 -1 -1 -1 -1 -0 -0 -0 -0 -0 -0 -0 -0
-6 -6 -6 -6 -6 -7 -7 -7 -7 -7 -7 -7 -7 -7 -7 -6 -6 -6 -6 -5 -5 -4 -4 -4 -3 -3 -3 -3 -2 -2 -2 -2 -2 -2 -2 -1 -1 -1 -1 -1 -1 -1 -1 -1
-7 -7 -7 -7 -7 -7 -8 -8 -8 -7 -7 -7 -7 -7 -7 -7 -7 -7 -6 -6 -5 -5 -5 -5 -4 -4 -4 -3 -3 -3 -3 -3 -3 -2 -2 -2 -2 -2 -2 -2 -1 -1 -1 -1
-8 -8 -8 -8 -8 -8 -8 -8 -8 -8 -8 -8 -8 -8 -8 -7 -7 -7 -7 -7 -6 -6 -6 -5 -5 -5 -4 -4 -4 -3 -3 -3 -3 -3 -3 -3 -3 -3 -3 -3 -2 -2 -2 -2
-8 -8 -8 -8 -8 -9 -9 -9 -9 -9 -8 -8 -8 -8 -8 -8 -8 -7 -7 -7 -7 -6 -6 -6 -6 -5 -5 -4 -4 -4 -4 -4 -4 -3 -3 -3 -3 -3 -3 -3 -3 -3 -3 -3
-8 -9 -9 -9 -9 -9 -9 -9 -9 -9 -9 -9 -9 -8 -8 -8 -8 -8 -7 -7 -7 -7 -7 -6 -6 -6 -5 -5 -5 -4 -4 -4 -4 -4 -4 -4 -4 -4 -4 -4 -4 -3 -3 -3
-9 -9 -9 -9 -9 -9 -9 -9 -9 -9 -9 -9 -9 -9 -9 -9 -8 -8 -8 -8 -7 -7 -7 -7 -7 -6 -6 -6 -5 -5 -5 -5 -5 -4 -4 -4 -4 -4 -4 -4 -4 -4 -4 -4
-9 -9 -9 -9 -10 -9 -9 -9 -10 -10 -9 -9 -9 -9 -9 -9 -9 -8 -8 -8 -8 -8 -7 -7 -7 -7 -7 -6 -6 -5 -5 -5 -5 -5 -5 -5 -5 -5 -5 -4 -4 -4 -4 -4
-10 -10 -10 -10 -10 -10 -10 -10 -10 -10 -10 -10 -10 -9 -9 -9 -9 -9 -8 -8 -8 -8 -8 -8 -7 -7 -7 -7 -6 -6 -6 -6 -6 -5 -5 -5 -5 -5 -5 -5 -5 -5 -5 -5
-10 -10 -11 -11 -10 -10 -10 -10 -10 -10 -10 -10 -10 -10 -10 -9 -9 -9 -9 -9 -8 -8 -8 -8 -8 -8 -8 -7 -7 -7 -7 -6 -6 -6 -6 -6 -6 -6 -6 -6 -5 -5 -5 -5
-10 -10 -10 -10 -10 -10 -10 -10 -10 -10 -10 -10 -10 -10 -10 -10 -10 -10 -9 -9 -9 -9 -9 -9 -8 -8 -8 -8 -8 -7 -7 -7 -7 -7 -7 -6 -6 -6 -6 -6 -6 -6 -6 -6
-10 -10 -10 -10 -10 -10 -11 -10 -10 -10 -10 -10 -10 -10 -10 -10 -10 -10 -10 -9 -9 -9 -9 -9 -9 -9 -9 -8 -8 -8 -8 -8 -7 -7 -7 -7 -7 -7 -7 -7 -6 -6 -6 -6
-11 -11 -11 -11 -11 -11 -11 -11 -11 -11 -11 -11 -11 -11 -11 -11 -11 -10 -10 -10 -10 -10 -10 -9 -9 -9 -9 -9 -9 -8 -8 -8 -8 -8 -8 -8 -8 -7 -7 -7 -7 -7 -7 -7
-11 -11 -11 -11 -11 -11 -11 -11 -11 -11 -11 -11 -11 -11 -11 -11 -11 -11 -10 -10 -10 -10 -10 -10 -10 -10 -9 -9 -9 -9 -9 -8 -8 -8 -8 -8 -8 -8 -8 -7 -7 -7 -7 -7
-11 -11 -12 -12 -12 -12 -11 -12 -12 -12 -12 -12 -12 -12 -12 -12 -11 -11 -11 -11 -11 -10 -10 -10 -10 -10 -10 -9 -9 -9 -9 -9 -9 -9 -9 -8 -8 -8 -8 -8 -8 -7 -7 -7
-12 -12 -12 -12 -12 -12 -12 -12 -12 -12 -12 -12 -12 -12 -12 -12 -11 -11 -11 -11 -11 -11 -10 -10 -10 -10 -10 -9 -9 -9 -9 -9 -9 -9 -9 -9 -8 -8 -8 -8 -8 -8 -8 -8
-12 -12 -12 -12 -12 -12 -12 -12 -12 -12 -12 -12 -12 -12 -12 -12 -12 -12 -11 -11 -11 -11 -10 -10 -10 -10 -10 -10 -10 -10 -9 -9 -9 -9 -9 -9 -9 -8 -8 -8 -8 -8 -8 -8
-13 -13 -13 -13 -13 -13 -13 -13 -13 -13 -13 -13 -12 -12 -12 -12 -12 -12 -11 -11 -11 -11 -11 -11 -10 -10 -10 -10 -10 -10 -10 -10 -10 -9 -9 -9 -9 -9 -9 -9 -9 -9 -9 -9
-13 -13 -13 -13 -13 -13 -13 -13 -13 -13 -13 -13 -13 -13 -12 -12 -12 -12 -12 -11 -11 -11 -11 -11 -11 -11 -11 -10 -10 -10 -10 -10 -10 -10 -9 -9 -9 -9 -9 -9 -9 -9 -9 -9
Wind_Speed
5 6 5 6 7 6 2 1 1 1 3 4 5 6 6 7 7 7 7 7 7 6 5 5 4 4 3 2 2 1 1 1 1 1 3 3 4 4 5 5 5 5 5 5
5 4 4 6 8 6 5 3 3 3 4 6 6 7 8 8 7 7 7 7 8 7 7 6 5 4 4 3 2 2 1 2 1 2 3 3 4 4 5 5 5 5 5 6
3 5 3 3 6 4 4 4 3 3 4 6 7 7 7 7 7 7 7 8 7 7 7 6 5 4 3 2 1 1 1 2 2 2 3 3 3 4 5 5 5 5 5 5
3 4 0 2 6 7 4 6 8 6 8 7 6 5 5 5 7 8 9 9 8 7 6 6 5 4 3 2 1 1 1 2 2 3 3 3 3 4 4 4 4 5 5 5
1 2 1 3 7 8 4 3 9 9 9 10 10 5 4 7 9 8 8 8 8 7 6 6 5 3 2 1 1 1 1 2 2 3 3 3 4 3 4 4 4 4 4 5
2 1 1 5 10 11 4 2 9 10 9 9 9 5 6 10 11 10 9 8 8 7 6 5 4 3 1 1 1 1 1 1 1 3 3 3 3 3 4 4 4 4 4 4
2 1 1 6 11 8 3 4 10 9 8 7 6 5 8 10 9 9 8 8 8 7 6 4 4 3 1 1 1 1 1 2 2 2 3 3 3 3 4 5 5 4 4 3
2 1 2 8 7 5 4 6 7 8 7 7 7 7 8 9 9 9 9 8 8 6 5 4 4 3 2 2 2 1 2 3 2 2 2 2 4 4 4 5 5 5 4 3
1 1 3 5 4 5 6 7 7 7 7 7 8 8 9 9 9 8 8 8 7 6 6 5 4 3 2 2 2 2 3 3 3 3 2 2 3 4 4 4 4 4 4 3
1 2 5 6 7 8 8 8 8 8 8 7 7 8 9 9 8 8 8 7 7 6 6 6 5 5 3 3 2 3 3 2 2 3 3 2 2 2 3 3 4 4 3 3
1 3 5 6 9 10 10 10 10 10 9 8 8 8 8 8 8 7 7 7 7 6 6 6 6 5 5 4 3 3 2 2 2 2 3 2 2 2 2 1 2 3 3 3
2 4 4 6 8 9 9 10 9 9 10 9 9 9 9 8 7 7 7 7 7 7 6 6 6 5 5 4 3 2 2 2 1 2 2 2 3 3 5 3 4 3 2 2
3 4 4 5 7 8 8 8 9 8 8 9 9 8 8 7 8 7 7 8 7 7 7 7 7 7 6 5 3 2 2 1 1 1 2 2 2 3 2 3 4 3 3 2
4 4 4 6 7 8 8 8 8 8 8 8 8 8 8 8 8 8 8 8 7 6 6 6 6 7 6 5 4 3 2 2 1 1 1 1 2 2 2 2 2 1 1 2
5 5 4 6 6 7 8 8 9 9 9 9 8 8 8 9 9 8 8 8 7 7 7 6 6 7 7 5 4 3 2 1 1 1 1 1 1 2 2 2 2 1 1 0
6 5 5 6 7 8 8 8 8 9 9 9 9 9 8 8 7 8 8 8 7 7 7 7 7 6 6 5 5 3 2 3 2 1 1 1 1 1 1 1 1 1 1 1
5 5 6 8 8 8 8 7 7 7 8 8 9 9 8 8 8 8 8 8 6 6 6 6 7 7 6 6 5 3 2 2 3 2 1 1 1 1 1 1 1 1 1 2
3 3 4 5 6 7 8 7 7 7 7 8 8 8 8 8 8 8 8 8 7 7 7 7 7 7 6 6 5 3 2 2 2 1 1 0 0 1 1 1 1 1 2 2
4 4 5 5 6 6 6 7 7 7 7 7 7 7 7 7 7 8 8 7 7 7 8 8 10 8 6 6 6 3 3 2 2 1 1 1 1 1 0 1 2 2 2 2
4 5 5 5 6 6 6 6 7 7 7 7 7 7 7 8 8 8 7 6 6 5 7 8 7 6 6 6 6 3 3 3 2 2 1 1 1 1 1 2 2 2 2 2
5 5 5 6 6 6 6 6 6 7 7 6 6 7 7 8 7 7 7 6 6 7 7 9 7 6 5 6 6 4 3 3 3 2 2 1 1 2 2 2 2 2 2 2
4 5 5 6 6 6 6 5 5 6 6 6 6 7 7 8 8 7 6 5 6 10 7 5 5 7 8 8 4 4 3 3 3 2 2 2 2 2 2 2 2 3 3 2
4 4 5 5 6 6 6 5 5 6 6 6 7 7 7 6 6 6 7 6 6 10 8 5 8 10 11 6 4 3 3 3 3 3 3 3 3 3 3 3 3 3 3 3
4 5 5 5 5 5 6 6 6 5 6 6 6 6 6 6 5 4 5 9 11 11 7 8 11 11 10 4 4 4 4 4 4 3 3 3 3 3 3 3 3 3 3 3
5 4 4 5 5 5 6 6 6 6 6 5 6 5 5 4 5 6 6 7 10 11 6 8 11 11 7 4 4 4 4 4 4 4 3 3 4 3 3 3 3 3 3 3
4 4 4 4 4 4 5 5 5 5 6 6 6 5 5 5 6 6 5 6 8 10 7 5 6 7 5 4 4 4 4 4 5 4 4 4 4 4 4 3 3 3 3 3
4 4 4 4 4 4 4 5 5 6 6 6 7 7 6 6 6 6 6 6 6 6 6 5 5 5 5 4 4 4 4 4 4 4 4 4 4 4 4 4 4 4 4 4
Wind_Direction
300 313 342 352 341 352 15 326 289 351 11 5 17 35 29 27 31 33 28 21 19 13 7 4 2 3 4 8 29 41 94 111 134 143 138 144 146 147 149 147 150 147 145 144
293 304 354 7 0 0 353 339 325 358 356 10 22 26 20 19 22 23 17 9 4 0 355 352 351 353 356 356 15 42 77 89 94 116 121 131 139 139 142 144 145 144 147 146
295 316 327 4 4 17 26 20 1 342 343 7 13 17 11 4 11 6 359 354 351 346 339 335 333 335 332 339 1 44 75 89 94 113 127 132 140 140 141 145 144 144 144 142
297 339 338 79 27 15 27 33 25 17 6 2 355 355 3 10 7 357 347 342 339 333 331 330 327 331 336 354 28 64 75 92 102 108 115 121 125 135 138 135 138 141 142 143
303 296 270 44 7 350 339 3 21 10 4 360 351 345 3 12 359 344 336 332 330 326 322 323 323 323 342 28 35 61 75 86 108 118 119 121 125 129 131 129 127 127 134 144
309 311 358 3 337 328 315 341 8 3 360 358 0 351 328 342 341 335 334 334 332 328 330 331 330 337 33 50 41 43 82 92 96 120 127 128 127 125 124 127 126 127 125 136
314 290 40 357 338 349 31 327 339 347 346 347 344 319 312 325 332 333 332 333 334 333 335 334 342 358 22 40 18 6 63 82 83 99 121 128 124 121 124 126 122 121 122 119
353 355 330 353 3 19 333 327 338 342 343 339 332 327 328 333 336 338 339 340 340 340 339 344 351 360 9 10 358 41 75 79 87 91 104 116 121 121 123 129 129 130 127 121
13 21 352 6 17 2 353 343 342 341 339 336 333 333 334 335 338 341 342 341 344 345 348 354 358 5 11 352 12 67 86 84 89 89 88 108 125 129 131 132 139 144 142 136
10 355 356 4 14 5 2 358 351 348 344 343 339 336 335 336 339 343 345 344 346 353 360 356 357 6 10 12 39 73 89 94 100 105 97 90 109 123 134 143 144 146 145 145
323 340 352 356 358 356 358 1 359 356 354 351 346 341 339 339 343 346 344 345 351 359 0 354 357 4 9 20 42 63 77 86 94 104 110 100 85 80 110 115 151 155 160 159
317 339 326 317 337 349 356 357 355 354 354 353 351 344 343 346 349 348 346 348 353 356 356 353 359 2 2 11 33 65 80 87 95 107 109 111 107 76 55 81 90 106 130 152
289 317 317 312 339 351 352 351 352 354 353 352 355 355 354 351 349 350 348 350 352 352 355 358 2 1 360 8 20 39 65 79 91 99 113 121 132 128 107 70 72 87 109 123
346 348 340 343 337 342 348 350 353 354 355 356 356 355 354 353 351 351 350 348 349 355 359 2 4 358 354 4 18 30 39 33 52 109 125 131 133 137 140 137 120 84 85 122
358 355 327 327 340 347 350 352 353 352 352 353 354 354 352 352 350 348 345 346 353 360 360 2 2 354 352 2 11 21 24 20 43 88 104 118 124 122 128 137 145 141 117 127
334 341 348 352 349 348 350 350 347 344 345 346 347 348 346 347 347 348 349 351 357 355 353 356 354 350 352 0 5 11 19 15 21 78 102 108 115 129 141 150 158 168 184 206
346 343 344 341 340 341 341 340 338 336 338 340 339 338 341 345 348 351 350 351 353 351 351 353 350 350 355 1 3 6 15 16 12 30 68 100 126 143 155 159 176 199 219 232
335 326 327 326 328 331 334 338 339 340 337 334 335 339 344 347 345 342 340 342 349 356 356 355 353 353 358 2 2 0 3 7 6 10 21 54 115 150 160 192 214 227 240 246
335 330 330 333 333 331 331 332 333 334 334 336 338 341 341 341 339 338 340 345 349 349 347 351 351 354 356 357 356 357 1 3 2 351 347 12 12 359 291 259 252 251 255 252
332 333 332 332 334 333 330 330 330 331 333 335 336 337 339 338 337 337 340 342 340 333 334 340 345 349 353 353 349 351 356 356 351 339 338 340 305 285 276 271 264 257 257 259
326 328 328 326 325 327 326 326 327 326 327 332 333 332 330 330 333 335 335 333 335 341 343 342 346 345 346 344 342 347 349 346 343 336 326 314 299 288 280 276 274 271 266 265
318 319 319 320 320 321 323 324 322 321 324 327 328 328 328 328 331 330 325 317 324 333 339 337 337 337 339 338 340 339 337 334 327 323 318 308 297 287 281 276 273 274 273 270
314 315 316 317 316 313 317 320 318 318 318 320 320 320 319 316 319 319 319 326 332 331 334 327 329 332 334 338 337 334 330 324 316 312 307 301 295 287 280 280 280 278 272 270
311 313 312 313 315 316 316 316 315 314 310 307 308 310 313 315 315 311 305 316 326 326 326 324 329 332 333 336 330 325 320 316 313 310 305 300 296 292 286 283 285 284 274 268
308 305 307 312 313 310 310 315 316 314 313 312 312 313 312 306 303 309 313 316 321 324 322 324 328 330 332 325 321 315 313 307 305 306 303 301 297 294 290 285 281 281 279 271
302 300 297 293 294 302 309 313 314 315 318 317 317 318 317 313 308 309 312 314 316 319 320 317 319 322 321 319 315 312 310 310 311 311 307 302 298 296 292 289 285 282 280 276
303 303 304 305 308 312 313 313 311 311 313 311 310 312 313 313 313 314 314 314 314 314 314 313 314 314 314 314 313 311 309 306 304 302 302 300 298 296 294 290 286 283 283 280
Height
1467 1464 1461 1460 1459 1456 1456 1457 1457 1454 1454 1457 1457 1456 1456 1456 1455 1455 1455 1455 1455 1454 1454 1453 1453 1453 1453 1453 1454 1454 1455 1456 1458 1460 1462 1464 1466 1468 1471 1474 1477 1479 1481 1484
1467 1462 1460 1462 1461 1460 1460 1460 1459 1458 1460 1460 1459 1459 1458 1457 1456 1456 1456 1455 1455 1454 1453 1452 1452 1452 1451 1451 1452 1453 1453 1454 1455 1457 1459 1461 1463 1466 1468 1471 1473 1476 1478 1481
1468 1461 1460 1467 1467 1465 1465 1465 1464 1465 1466 1463 1461 1461 1460 1459 1458 1458 1457 1456 1455 1454 1453 1452 1451 1451 1450 1450 1450 1451 1451 1452 1453 1455 1456 1458 1461 1463 1465 1468 1470 1472 1475 1477
1470 1468 1475 1475 1470 1469 1468 1468 1468 1467 1467 1465 1464 1462 1461 1460 1459 1458 1457 1455 1454 1453 1451 1450 1449 1449 1448 1448 1449 1449 1449 1450 1451 1452 1454 1456 1458 1460 1462 1465 1467 1469 1471 1474
1473 1474 1471 1473 1474 1473 1471 1470 1471 1469 1467 1465 1463 1460 1459 1460 1459 1458 1457 1455 1453 1451 1449 1448 1447 1446 1446 1446 1446 1447 1447 1448 1449 1450 1452 1453 1455 1457 1459 1462 1464 1466 1469 1471
1476 1476 1478 1483 1477 1472 1471 1472 1472 1470 1469 1467 1464 1463 1462 1460 1458 1456 1454 1453 1450 1449 1447 1445 1444 1444 1444 1444 1444 1445 1445 1446 1447 1448 1450 1451 1453 1455 1457 1459 1461 1464 1466 1469
1479 1480 1483 1485 1478 1472 1479 1481 1475 1473 1471 1469 1467 1468 1464 1460 1457 1455 1453 1450 1448 1446 1445 1444 1443 1442 1441 1442 1442 1443 1444 1444 1445 1446 1448 1449 1451 1453 1455 1457 1459 1461 1464 1466
1484 1487 1491 1485 1481 1483 1484 1479 1476 1473 1471 1469 1467 1464 1462 1459 1456 1453 1451 1448 1447 1444 1443 1442 1441 1440 1439 1439 1440 1441 1441 1442 1443 1444 1446 1447 1449 1450 1453 1455 1457 1459 1461 1463
1491 1494 1490 1487 1486 1484 1482 1479 1476 1473 1471 1469 1466 1463 1460 1458 1455 1452 1450 1447 1445 1443 1441 1440 1439 1438 1437 1438 1438 1439 1439 1440 1441 1443 1444 1445 1447 1448 1450 1453 1454 1456 1459 1460
1491 1490 1489 1488 1486 1484 1481 1478 1476 1473 1470 1468 1465 1462 1459 1457 1454 1452 1449 1446 1444 1442 1440 1438 1438 1437 1436 1436 1437 1437 1437 1438 1440 1441 1442 1443 1445 1447 1448 1450 1452 1454 1456 1458
1492 1491 1490 1488 1486 1484 1481 1478 1474 1472 1470 1467 1464 1461 1459 1456 1454 1451 1449 1446 1444 1441 1439 1438 1437 1436 1436 1435 1435 1435 1436 1437 1438 1439 1440 1442 1443 1445 1447 1449 1451 1452 1454 1457
1496 1494 1493 1490 1487 1484 1481 1478 1475 1472 1469 1467 1464 1461 1458 1456 1453 1451 1448 1446 1443 1441 1439 1438 1437 1435 1435 1435 1435 1435 1435 1436 1437 1438 1439 1440 1441 1443 1445 1448 1450 1452 1453 1455
1496 1494 1492 1489 1487 1484 1481 1478 1476 1473 1470 1466 1464 1461 1458 1456 1453 1450 1448 1445 1443 1441 1439 1438 1436 1435 1435 1434 1434 1434 1434 1435 1436 1436 1438 1439 1440 1441 1443 1446 1448 1450 1451 1453
1494 1492 1490 1488 1486 1483 1481 1478 1475 1472 1470 1467 1464 1461 1459 1456 1453 1450 1447 1445 1443 1441 1440 1438 1437 1436 1435 1435 1434 1434 1434 1434 1434 1435 1436 1437 1439 1440 1442 1443 1445 1446 1449 1450
1493 1492 1490 1488 1485 1483 1480 1477 1474 1471 1469 1466 1464 1461 1459 1455 1453 1450 1448 1445 1443 1441 1439 1438 1437 1436 1435 1434 1433 1433 1433 1433 1433 1434 1435 1436 1437 1438 1440 1441 1443 1444 1446 1447
1492 1490 1488 1486 1484 1482 1479 1477 1474 1471 1469 1466 1463 1461 1459 1456 1453 1450 1448 1445 1443 1441 1439 1438 1437 1435 1434 1433 1432 1432 1432 1432 1432 1433 1433 1434 1435 1437 1438 1439 1440 1442 1443 1444
1490 1488 1487 1485 1483 1480 1478 1476 1474 1471 1469 1466 1463 1461 1458 1455 1452 1450 1447 1445 1443 1441 1439 1438 1436 1435 1434 1432 1432 1431 1431 1431 1431 1431 1432 1432 1433 1434 1435 1437 1438 1439 1440 1441
1490 1489 1487 1485 1482 1480 1477 1475 1473 1470 1468 1466 1463 1460 1458 1455 1452 1450 1447 1445 1442 1440 1439 1437 1436 1434 1433 1432 1431 1430 1430 1430 1430 1430 1430 1431 1431 1432 1433 1434 1435 1436 1437 1438
1488 1487 1485 1483 1481 1479 1476 1474 1472 1469 1467 1464 1462 1459 1457 1454 1452 1449 1447 1444 1442 1439 1438 1437 1435 1434 1432 1431 1430 1429 1429 1428 1428 1428 1428 1429 1429 1430 1431 1432 1433 1433 1434 1434
1487 1485 1483 1481 1479 1477 1475 1473 1470 1468 1465 1463 1460 1458 1455 1453 1451 1448 1446 1443 1442 1440 1438 1436 1435 1433 1432 1430 1429 1428 1428 1427 1427 1427 1427 1427 1427 1428 1429 1429 1430 1430 1430 1431
1485 1483 1481 1479 1477 1475 1473 1471 1469 1466 1464 1461 1459 1456 1454 1452 1450 1447 1445 1442 1441 1439 1437 1436 1434 1432 1431 1430 1429 1428 1427 1426 1426 1425 1425 1425 1426 1426 1426 1426 1426 1427 1427 1427
1483 1481 1479 1477 1475 1473 1471 1469 1467 1464 1462 1460 1457 1455 1453 1450 1448 1446 1444 1442 1440 1438 1437 1435 1433 1432 1430 1429 1428 1427 1426 1425 1425 1424 1424 1424 1424 1423 1423 1423 1423 1423 1423 1423
1480 1479 1477 1475 1473 1471 1469 1467 1464 1462 1460 1458 1456 1454 1451 1449 1447 1445 1442 1441 1439 1437 1435 1434 1432 1431 1430 1428 1427 1426 1425 1424 1424 1423 1422 1422 1421 1421 1420 1420 1420 1420 1419 1419
1478 1476 1474 1472 1470 1468 1466 1464 1462 1460 1458 1456 1454 1452 1450 1447 1445 1444 1442 1440 1438 1436 1434 1432 1431 1430 1428 1427 1425 1424 1423 1422 1422 1421 1420 1419 1418 1418 1417 1417 1417 1416 1416 1416
1475 1473 1471 1469 1467 1465 1463 1461 1459 1457 1455 1453 1452 1450 1448 1446 1444 1441 1440 1438 1436 1434 1432 1431 1429 1428 1426 1425 1424 1422 1421 1421 1420 1418 1417 1416 1416 1415 1415 1414 1414 1413 1412 1412
1472 1470 1468 1467 1465 1463 1461 1459 1457 1455 1453 1450 1449 1447 1445 1443 1442 1440 1438 1436 1434 1432 1430 1428 1427 1425 1424 1423 1422 1420 1419 1418 1417 1416 1415 1414 1413 1412 1412 1411 1411 1410 1409 1409
1469 1467 1465 1463 1462 1460 1458 1456 1454 1452 1450 1448 1446 1444 1443 1441 1439 1437 1435 1433 1432 1430 1428 1426 1425 1423 1422 1421 1419 1418 1417 1416 1415 1414 1412 1411 1410 1410 1409 1408 1408 1407 1406 1406